owner,sensor,date,latitude,longitude,vertical_datum,wind_speed,wind_to_direction,wind_speed_of_gust,qcFlag 
NDBC,ioos:station:NOAA.NDBC:SGOF1:1,2017-12-01T00:00:00Z,29.4080,-84.8580,35.1,1.0,90.0,1.0,'1111122,1111122,1111122' 
NDBC,ioos:station:NOAA.NDBC:SGOF1:1,2017-12-01T01:00:00Z,29.4080,-84.8580,35.1,2.6,150.0,3.1,'1111122,1111122,1111122' 
NDBC,ioos:station:NOAA.NDBC:SGOF1:1,2017-12-01T02:00:00Z,29.4080,-84.8580,35.1,1.0,160.0,1.0,'1111122,1111122,1111122' 
NDBC,ioos:station:NOAA.NDBC:SGOF1:1,2017-12-01T03:00:00Z,29.4080,-84.8580,35.1,1.5,170.0,1.5,'1111122,1111122,1111122' 
NDBC,ioos:station:NOAA.NDBC:SGOF1:1,2017-12-01T04:00:00Z,29.4080,-84.8580,35.1,2.1,240.0,2.1,'1111122,1111122,1111122' 
NDBC,ioos:station:NOAA.NDBC:SGOF1:1,2017-12-01T05:00:00Z,29.4080,-84.8580,35.1,3.1,260.0,3.6,'1111122,1111122,1111122' 
NDBC,ioos:station:NOAA.NDBC:SGOF1:1,2017-12-01T06:00:00Z,29.4080,-84.8580,35.1,2.6,280.0,3.1,'1111122,1111122,1111122' 
NDBC,ioos:station:NOAA.NDBC:SGOF1:1,2017-12-01T07:00:00Z,29.4080,-84.8580,35.1,2.6,300.0,3.1,'1111122,1111122,1111122' 
NDBC,ioos:station:NOAA.NDBC:SGOF1:1,2017-12-01T08:00:00Z,29.4080,-84.8580,35.1,2.6,280.0,2.6,'1111122,1111122,1111122' 
NDBC,ioos:station:NOAA.NDBC:SGOF1:1,2017-12-01T09:00:00Z,29.4080,-84.8580,35.1,2.1,280.0,2.1,'1111122,1111122,1111122' 
NDBC,ioos:station:NOAA.NDBC:SGOF1:1,2017-12-01T10:00:00Z,29.4080,-84.8580,35.1,1.0,250.0,1.5,'1111122,1111122,1111122' 
NDBC,ioos:station:NOAA.NDBC:SGOF1:1,2017-12-01T11:00:00Z,29.4080,-84.8580,35.1,1.0,220.0,1.0,'1111122,1111122,1111122' 
NDBC,ioos:station:NOAA.NDBC:SGOF1:1,2017-12-01T12:00:00Z,29.4080,-84.8580,35.1,1.5,140.0,1.5,'1111122,1111122,1111122' 
NDBC,ioos:station:NOAA.NDBC:SGOF1:1,2017-12-01T13:00:00Z,29.4080,-84.8580,35.1,3.1,140.0,3.1,'1111122,1111122,1111122' 
NDBC,ioos:station:NOAA.NDBC:SGOF1:1,2017-12-01T14:00:00Z,29.4080,-84.8580,35.1,3.6,140.0,3.6,'1111122,1111122,1111122' 
NDBC,ioos:station:NOAA.NDBC:SGOF1:1,2017-12-01T15:00:00Z,29.4080,-84.8580,35.1,3.1,170.0,3.1,'1111122,1111122,1111122' 
NDBC,ioos:station:NOAA.NDBC:SGOF1:1,2017-12-01T16:00:00Z,29.4080,-84.8580,35.1,3.1,180.0,3.6,'1111122,1111122,1111122' 
NDBC,ioos:station:NOAA.NDBC:SGOF1:1,2017-12-01T17:00:00Z,29.4080,-84.8580,35.1,4.6,190.0,5.1,'1111122,1111122,1111122' 
NDBC,ioos:station:NOAA.NDBC:SGOF1:1,2017-12-01T18:00:00Z,29.4080,-84.8580,35.1,4.6,210.0,5.1,'1111122,1111122,1111122' 
NDBC,ioos:station:NOAA.NDBC:SGOF1:1,2017-12-01T19:00:00Z,29.4080,-84.8580,35.1,3.6,220.0,3.6,'1111122,1111122,1111122' 
NDBC,ioos:station:NOAA.NDBC:SGOF1:1,2017-12-01T20:00:00Z,29.4080,-84.8580,35.1,5.1,230.0,5.7,'1111122,1111122,1111122' 
NDBC,ioos:station:NOAA.NDBC:SGOF1:1,2017-12-02T02:00:00Z,29.4080,-84.8580,35.1,1.5,200.0,2.1,'1111122,1111122,1111122' 
NDBC,ioos:station:NOAA.NDBC:SGOF1:1,2017-12-02T08:00:00Z,29.4080,-84.8580,35.1,2.1,10.0,2.1,'1111122,1111122,1111122' 
NDBC,ioos:station:NOAA.NDBC:SGOF1:1,2017-12-02T10:00:00Z,29.4080,-84.8580,35.1,1.5,30.0,2.1,'1111122,1111122,1111122' 
NDBC,ioos:station:NOAA.NDBC:SGOF1:1,2017-12-02T11:00:00Z,29.4080,-84.8580,35.1,2.6,10.0,3.1,'1111122,1111122,1111122' 
NDBC,ioos:station:NOAA.NDBC:SGOF1:1,2017-12-02T12:00:00Z,29.4080,-84.8580,35.1,2.1,30.0,2.6,'1111122,1111122,1111122' 
NDBC,ioos:station:NOAA.NDBC:SGOF1:1,2017-12-02T13:00:00Z,29.4080,-84.8580,35.1,2.6,40.0,2.6,'1111122,1111122,1111122' 
NDBC,ioos:station:NOAA.NDBC:SGOF1:1,2017-12-02T14:00:00Z,29.4080,-84.8580,35.1,2.1,110.0,2.6,'1111122,1111122,1111122' 
NDBC,ioos:station:NOAA.NDBC:SGOF1:1,2017-12-02T15:00:00Z,29.4080,-84.8580,35.1,2.1,110.0,2.1,'1111122,1111122,1111122' 
NDBC,ioos:station:NOAA.NDBC:SGOF1:1,2017-12-02T16:00:00Z,29.4080,-84.8580,35.1,3.6,150.0,3.6,'1111122,1111122,1111122' 
NDBC,ioos:station:NOAA.NDBC:SGOF1:1,2017-12-02T17:00:00Z,29.4080,-84.8580,35.1,3.1,170.0,3.1,'1111122,1111122,1111122' 
NDBC,ioos:station:NOAA.NDBC:SGOF1:1,2017-12-02T18:00:00Z,29.4080,-84.8580,35.1,3.1,180.0,3.1,'1111122,1111122,1111122' 
NDBC,ioos:station:NOAA.NDBC:SGOF1:1,2017-12-02T19:00:00Z,29.4080,-84.8580,35.1,3.1,180.0,3.1,'1111122,1111122,1111122' 
NDBC,ioos:station:NOAA.NDBC:SGOF1:1,2017-12-02T20:00:00Z,29.4080,-84.8580,35.1,5.1,190.0,5.1,'1111122,1111122,1111122' 
NDBC,ioos:station:NOAA.NDBC:SGOF1:1,2017-12-02T21:00:00Z,29.4080,-84.8580,35.1,4.1,200.0,4.6,'1111122,1111122,1111122' 
NDBC,ioos:station:NOAA.NDBC:SGOF1:1,2017-12-02T22:00:00Z,29.4080,-84.8580,35.1,4.1,210.0,4.1,'1111122,1111122,1111122' 
NDBC,ioos:station:NOAA.NDBC:SGOF1:1,2017-12-03T00:00:00Z,29.4080,-84.8580,35.1,2.6,220.0,2.6,'1111122,1111122,1111122' 
NDBC,ioos:station:NOAA.NDBC:SGOF1:1,2017-12-03T01:00:00Z,29.4080,-84.8580,35.1,2.1,220.0,2.1,'1111122,1111122,1111122' 
NDBC,ioos:station:NOAA.NDBC:SGOF1:1,2017-12-03T02:00:00Z,29.4080,-84.8580,35.1,1.5,260.0,1.5,'1111122,1111122,1111122' 
NDBC,ioos:station:NOAA.NDBC:SGOF1:1,2017-12-03T03:00:00Z,29.4080,-84.8580,35.1,1.5,280.0,1.5,'1111122,1111122,1111122' 
NDBC,ioos:station:NOAA.NDBC:SGOF1:1,2017-12-03T05:00:00Z,29.4080,-84.8580,35.1,1.5,280.0,2.6,'1111122,1111122,1111122' 
NDBC,ioos:station:NOAA.NDBC:SGOF1:1,2017-12-03T06:00:00Z,29.4080,-84.8580,35.1,0.5,220.0,0.5,'1111122,1111122,1111122' 
NDBC,ioos:station:NOAA.NDBC:SGOF1:1,2017-12-03T07:00:00Z,29.4080,-84.8580,35.1,2.1,310.0,2.6,'1111122,1111122,1111122' 
NDBC,ioos:station:NOAA.NDBC:SGOF1:1,2017-12-03T08:00:00Z,29.4080,-84.8580,35.1,2.1,320.0,3.1,'1111122,1111122,1111122' 
NDBC,ioos:station:NOAA.NDBC:SGOF1:1,2017-12-03T09:00:00Z,29.4080,-84.8580,35.1,5.7,360.0,6.2,'1111122,1111122,1111122' 
NDBC,ioos:station:NOAA.NDBC:SGOF1:1,2017-12-03T10:00:00Z,29.4080,-84.8580,35.1,5.1,10.0,5.7,'1111122,1111122,1111122' 
NDBC,ioos:station:NOAA.NDBC:SGOF1:1,2017-12-03T11:00:00Z,29.4080,-84.8580,35.1,5.7,40.0,6.2,'1111122,1111122,1111122' 
NDBC,ioos:station:NOAA.NDBC:SGOF1:1,2017-12-03T12:00:00Z,29.4080,-84.8580,35.1,5.7,40.0,6.2,'1111122,1111122,1111122' 
NDBC,ioos:station:NOAA.NDBC:SGOF1:1,2017-12-03T13:00:00Z,29.4080,-84.8580,35.1,5.7,50.0,6.2,'1111122,1111122,1111122' 
NDBC,ioos:station:NOAA.NDBC:SGOF1:1,2017-12-03T14:00:00Z,29.4080,-84.8580,35.1,5.1,40.0,5.7,'1111122,1111122,1111122' 
NDBC,ioos:station:NOAA.NDBC:SGOF1:1,2017-12-03T15:00:00Z,29.4080,-84.8580,35.1,4.6,50.0,5.1,'1111122,1111122,1111122' 
NDBC,ioos:station:NOAA.NDBC:SGOF1:1,2017-12-03T16:00:00Z,29.4080,-84.8580,35.1,4.6,50.0,5.7,'1111122,1111122,1111122' 
NDBC,ioos:station:NOAA.NDBC:SGOF1:1,2017-12-03T17:00:00Z,29.4080,-84.8580,35.1,3.1,60.0,3.6,'1111122,1111122,1111122' 
NDBC,ioos:station:NOAA.NDBC:SGOF1:1,2017-12-03T18:00:00Z,29.4080,-84.8580,35.1,4.1,40.0,4.6,'1111122,1111122,1111122' 
NDBC,ioos:station:NOAA.NDBC:SGOF1:1,2017-12-03T19:00:00Z,29.4080,-84.8580,35.1,3.1,50.0,3.6,'1111122,1111122,1111122' 
NDBC,ioos:station:NOAA.NDBC:SGOF1:1,2017-12-03T20:00:00Z,29.4080,-84.8580,35.1,2.1,100.0,2.6,'1111122,1111122,1111122' 
NDBC,ioos:station:NOAA.NDBC:SGOF1:1,2017-12-03T21:00:00Z,29.4080,-84.8580,35.1,1.5,140.0,2.1,'1111122,1111122,1111122' 
NDBC,ioos:station:NOAA.NDBC:SGOF1:1,2017-12-03T22:00:00Z,29.4080,-84.8580,35.1,1.5,170.0,1.5,'1111122,1111122,1111122' 
NDBC,ioos:station:NOAA.NDBC:SGOF1:1,2017-12-03T23:00:00Z,29.4080,-84.8580,35.1,1.0,150.0,1.0,'1111122,1111122,1111122' 
NDBC,ioos:station:NOAA.NDBC:SGOF1:1,2017-12-04T00:00:00Z,29.4080,-84.8580,35.1,2.1,80.0,2.1,'1111122,1111122,1111122' 
NDBC,ioos:station:NOAA.NDBC:SGOF1:1,2017-12-04T03:00:00Z,29.4080,-84.8580,35.1,5.7,50.0,6.2,'1111122,1111122,1111122' 
NDBC,ioos:station:NOAA.NDBC:SGOF1:1,2017-12-04T04:00:00Z,29.4080,-84.8580,35.1,8.2,60.0,8.8,'1111122,1111122,1111122' 
NDBC,ioos:station:NOAA.NDBC:SGOF1:1,2017-12-04T05:00:00Z,29.4080,-84.8580,35.1,8.2,80.0,8.8,'1111122,1111122,1111122' 
NDBC,ioos:station:NOAA.NDBC:SGOF1:1,2017-12-04T06:00:00Z,29.4080,-84.8580,35.1,7.7,90.0,8.2,'1111122,1111122,1111122' 
NDBC,ioos:station:NOAA.NDBC:SGOF1:1,2017-12-04T07:00:00Z,29.4080,-84.8580,35.1,6.7,80.0,8.2,'1111122,1111122,1111122' 
NDBC,ioos:station:NOAA.NDBC:SGOF1:1,2017-12-04T08:00:00Z,29.4080,-84.8580,35.1,9.3,90.0,9.8,'1111122,1111122,1111122' 
NDBC,ioos:station:NOAA.NDBC:SGOF1:1,2017-12-04T09:00:00Z,29.4080,-84.8580,35.1,8.8,100.0,9.8,'1111122,1111122,1111122' 
NDBC,ioos:station:NOAA.NDBC:SGOF1:1,2017-12-04T10:00:00Z,29.4080,-84.8580,35.1,8.2,90.0,8.8,'1111122,1111122,1111122' 
NDBC,ioos:station:NOAA.NDBC:SGOF1:1,2017-12-04T11:00:00Z,29.4080,-84.8580,35.1,8.8,110.0,9.3,'1111122,1111122,1111122' 
NDBC,ioos:station:NOAA.NDBC:SGOF1:1,2017-12-04T12:00:00Z,29.4080,-84.8580,35.1,9.3,110.0,9.8,'1111122,1111122,1111122' 
NDBC,ioos:station:NOAA.NDBC:SGOF1:1,2017-12-04T13:00:00Z,29.4080,-84.8580,35.1,9.3,120.0,9.8,'1111122,1111122,1111122' 
NDBC,ioos:station:NOAA.NDBC:SGOF1:1,2017-12-04T14:00:00Z,29.4080,-84.8580,35.1,10.8,120.0,11.8,'1111122,1111122,1111122' 
NDBC,ioos:station:NOAA.NDBC:SGOF1:1,2017-12-04T15:00:00Z,29.4080,-84.8580,35.1,10.3,120.0,10.3,'1111122,1111122,1111122' 
NDBC,ioos:station:NOAA.NDBC:SGOF1:1,2017-12-04T16:00:00Z,29.4080,-84.8580,35.1,8.2,130.0,8.8,'1111122,1111122,1111122' 
NDBC,ioos:station:NOAA.NDBC:SGOF1:1,2017-12-04T17:00:00Z,29.4080,-84.8580,35.1,6.2,130.0,6.7,'1111122,1111122,1111122' 
NDBC,ioos:station:NOAA.NDBC:SGOF1:1,2017-12-04T18:00:00Z,29.4080,-84.8580,35.1,7.7,130.0,8.2,'1111122,1111122,1111122' 
NDBC,ioos:station:NOAA.NDBC:SGOF1:1,2017-12-04T19:00:00Z,29.4080,-84.8580,35.1,5.7,110.0,6.7,'1111122,1111122,1111122' 
NDBC,ioos:station:NOAA.NDBC:SGOF1:1,2017-12-04T20:00:00Z,29.4080,-84.8580,35.1,6.7,120.0,6.7,'1111122,1111122,1111122' 
NDBC,ioos:station:NOAA.NDBC:SGOF1:1,2017-12-04T21:00:00Z,29.4080,-84.8580,35.1,5.1,110.0,5.7,'1111122,1111122,1111122' 
NDBC,ioos:station:NOAA.NDBC:SGOF1:1,2017-12-04T22:00:00Z,29.4080,-84.8580,35.1,5.1,100.0,5.7,'1111122,1111122,1111122' 
NDBC,ioos:station:NOAA.NDBC:SGOF1:1,2017-12-04T23:00:00Z,29.4080,-84.8580,35.1,6.2,110.0,6.7,'1111122,1111122,1111122' 
NDBC,ioos:station:NOAA.NDBC:SGOF1:1,2017-12-05T00:00:00Z,29.4080,-84.8580,35.1,6.7,120.0,7.7,'1111122,1111122,1111122' 
NDBC,ioos:station:NOAA.NDBC:SGOF1:1,2017-12-05T01:00:00Z,29.4080,-84.8580,35.1,7.2,120.0,7.7,'1111122,1111122,1111122' 
NDBC,ioos:station:NOAA.NDBC:SGOF1:1,2017-12-05T02:00:00Z,29.4080,-84.8580,35.1,7.2,130.0,7.7,'1111122,1111122,1111122' 
NDBC,ioos:station:NOAA.NDBC:SGOF1:1,2017-12-05T03:00:00Z,29.4080,-84.8580,35.1,6.2,130.0,6.2,'1111122,1111122,1111122' 
NDBC,ioos:station:NOAA.NDBC:SGOF1:1,2017-12-05T04:00:00Z,29.4080,-84.8580,35.1,5.1,130.0,5.7,'1111122,1111122,1111122' 
NDBC,ioos:station:NOAA.NDBC:SGOF1:1,2017-12-05T05:00:00Z,29.4080,-84.8580,35.1,5.7,110.0,6.2,'1111122,1111122,1111122' 
NDBC,ioos:station:NOAA.NDBC:SGOF1:1,2017-12-05T06:00:00Z,29.4080,-84.8580,35.1,6.2,110.0,6.7,'1111122,1111122,1111122' 
NDBC,ioos:station:NOAA.NDBC:SGOF1:1,2017-12-05T07:00:00Z,29.4080,-84.8580,35.1,6.2,120.0,6.7,'1111122,1111122,1111122' 
NDBC,ioos:station:NOAA.NDBC:SGOF1:1,2017-12-05T08:00:00Z,29.4080,-84.8580,35.1,8.8,140.0,9.3,'1111122,1111122,1111122' 
NDBC,ioos:station:NOAA.NDBC:SGOF1:1,2017-12-05T09:00:00Z,29.4080,-84.8580,35.1,6.7,150.0,7.7,'1111122,1111122,1111122' 
NDBC,ioos:station:NOAA.NDBC:SGOF1:1,2017-12-05T10:00:00Z,29.4080,-84.8580,35.1,8.2,150.0,8.8,'1111122,1111122,1111122' 
NDBC,ioos:station:NOAA.NDBC:SGOF1:1,2017-12-05T11:00:00Z,29.4080,-84.8580,35.1,7.7,150.0,8.2,'1111122,1111122,1111122' 
NDBC,ioos:station:NOAA.NDBC:SGOF1:1,2017-12-05T12:00:00Z,29.4080,-84.8580,35.1,5.7,160.0,6.2,'1111122,1111122,1111122' 
NDBC,ioos:station:NOAA.NDBC:SGOF1:1,2017-12-05T13:00:00Z,29.4080,-84.8580,35.1,6.2,160.0,6.7,'1111122,1111122,1111122' 
NDBC,ioos:station:NOAA.NDBC:SGOF1:1,2017-12-05T14:00:00Z,29.4080,-84.8580,35.1,7.2,150.0,7.7,'1111122,1111122,1111122' 
NDBC,ioos:station:NOAA.NDBC:SGOF1:1,2017-12-05T15:00:00Z,29.4080,-84.8580,35.1,5.7,150.0,5.7,'1111122,1111122,1111122' 
NDBC,ioos:station:NOAA.NDBC:SGOF1:1,2017-12-05T16:00:00Z,29.4080,-84.8580,35.1,5.1,150.0,5.7,'1111122,1111122,1111122' 
NDBC,ioos:station:NOAA.NDBC:SGOF1:1,2017-12-05T17:00:00Z,29.4080,-84.8580,35.1,5.1,160.0,5.7,'1111122,1111122,1111122' 
NDBC,ioos:station:NOAA.NDBC:SGOF1:1,2017-12-05T18:00:00Z,29.4080,-84.8580,35.1,5.7,170.0,5.7,'1111122,1111122,1111122' 
NDBC,ioos:station:NOAA.NDBC:SGOF1:1,2017-12-05T19:00:00Z,29.4080,-84.8580,35.1,6.2,160.0,6.7,'1111122,1111122,1111122' 
NDBC,ioos:station:NOAA.NDBC:SGOF1:1,2017-12-05T20:00:00Z,29.4080,-84.8580,35.1,5.1,170.0,5.7,'1111122,1111122,1111122' 
NDBC,ioos:station:NOAA.NDBC:SGOF1:1,2017-12-05T21:00:00Z,29.4080,-84.8580,35.1,5.1,180.0,5.1,'1111122,1111122,1111122' 
NDBC,ioos:station:NOAA.NDBC:SGOF1:1,2017-12-05T22:00:00Z,29.4080,-84.8580,35.1,5.1,180.0,5.7,'1111122,1111122,1111122' 
NDBC,ioos:station:NOAA.NDBC:SGOF1:1,2017-12-05T23:00:00Z,29.4080,-84.8580,35.1,5.1,180.0,5.7,'1111122,1111122,1111122' 
NDBC,ioos:station:NOAA.NDBC:SGOF1:1,2017-12-06T00:00:00Z,29.4080,-84.8580,35.1,5.1,190.0,5.7,'1111122,1111122,1111122' 
NDBC,ioos:station:NOAA.NDBC:SGOF1:1,2017-12-06T01:00:00Z,29.4080,-84.8580,35.1,5.7,180.0,5.7,'1111122,1111122,1111122' 
NDBC,ioos:station:NOAA.NDBC:SGOF1:1,2017-12-06T02:00:00Z,29.4080,-84.8580,35.1,6.2,190.0,6.7,'1111122,1111122,1111122' 
NDBC,ioos:station:NOAA.NDBC:SGOF1:1,2017-12-06T03:00:00Z,29.4080,-84.8580,35.1,5.1,200.0,5.1,'1111122,1111122,1111122' 
NDBC,ioos:station:NOAA.NDBC:SGOF1:1,2017-12-06T04:00:00Z,29.4080,-84.8580,35.1,5.7,210.0,5.7,'1111122,1111122,1111122' 
NDBC,ioos:station:NOAA.NDBC:SGOF1:1,2017-12-06T05:00:00Z,29.4080,-84.8580,35.1,5.1,200.0,5.7,'1111122,1111122,1111122' 
NDBC,ioos:station:NOAA.NDBC:SGOF1:1,2017-12-06T06:00:00Z,29.4080,-84.8580,35.1,5.1,200.0,5.1,'1111122,1111122,1111122' 
NDBC,ioos:station:NOAA.NDBC:SGOF1:1,2017-12-06T07:00:00Z,29.4080,-84.8580,35.1,7.2,200.0,7.7,'1111122,1111122,1111122' 
NDBC,ioos:station:NOAA.NDBC:SGOF1:1,2017-12-06T08:00:00Z,29.4080,-84.8580,35.1,4.1,210.0,4.1,'1111122,1111122,1111122' 
NDBC,ioos:station:NOAA.NDBC:SGOF1:1,2017-12-06T09:00:00Z,29.4080,-84.8580,35.1,3.6,210.0,4.1,'1111122,1111122,1111122' 
NDBC,ioos:station:NOAA.NDBC:SGOF1:1,2017-12-06T10:00:00Z,29.4080,-84.8580,35.1,6.2,150.0,6.7,'1111122,1111122,1111122' 
NDBC,ioos:station:NOAA.NDBC:SGOF1:1,2017-12-06T11:00:00Z,29.4080,-84.8580,35.1,4.1,180.0,4.6,'1111122,1111122,1111122' 
NDBC,ioos:station:NOAA.NDBC:SGOF1:1,2017-12-06T12:00:00Z,29.4080,-84.8580,35.1,4.1,210.0,4.1,'1111122,1111122,1111122' 
NDBC,ioos:station:NOAA.NDBC:SGOF1:1,2017-12-06T13:00:00Z,29.4080,-84.8580,35.1,2.6,230.0,3.1,'1111122,1111122,1111122' 
NDBC,ioos:station:NOAA.NDBC:SGOF1:1,2017-12-06T15:00:00Z,29.4080,-84.8580,35.1,2.6,360.0,2.6,'1111122,1111122,1111122' 
NDBC,ioos:station:NOAA.NDBC:SGOF1:1,2017-12-06T16:00:00Z,29.4080,-84.8580,35.1,2.6,360.0,2.6,'1111122,1111122,1111122' 
NDBC,ioos:station:NOAA.NDBC:SGOF1:1,2017-12-06T17:00:00Z,29.4080,-84.8580,35.1,3.6,10.0,4.1,'1111122,1111122,1111122' 
NDBC,ioos:station:NOAA.NDBC:SGOF1:1,2017-12-06T18:00:00Z,29.4080,-84.8580,35.1,2.6,50.0,2.6,'1111122,1111122,1111122' 
NDBC,ioos:station:NOAA.NDBC:SGOF1:1,2017-12-06T19:00:00Z,29.4080,-84.8580,35.1,3.6,50.0,4.1,'1111122,1111122,1111122' 
NDBC,ioos:station:NOAA.NDBC:SGOF1:1,2017-12-06T20:00:00Z,29.4080,-84.8580,35.1,14.4,360.0,14.9,'1111122,1111122,1111122' 
NDBC,ioos:station:NOAA.NDBC:SGOF1:1,2017-12-06T21:00:00Z,29.4080,-84.8580,35.1,13.4,20.0,13.9,'1111122,1111122,1111122' 
NDBC,ioos:station:NOAA.NDBC:SGOF1:1,2017-12-06T22:00:00Z,29.4080,-84.8580,35.1,14.9,30.0,17.0,'1111122,1111122,1111122' 
NDBC,ioos:station:NOAA.NDBC:SGOF1:1,2017-12-06T23:00:00Z,29.4080,-84.8580,35.1,13.9,40.0,15.4,'1111122,1111122,1111122' 
NDBC,ioos:station:NOAA.NDBC:SGOF1:1,2017-12-07T00:00:00Z,29.4080,-84.8580,35.1,12.4,50.0,13.4,'1111122,1111122,1111122' 
NDBC,ioos:station:NOAA.NDBC:SGOF1:1,2017-12-07T01:00:00Z,29.4080,-84.8580,35.1,11.3,50.0,11.8,'1111122,1111122,1111122' 
NDBC,ioos:station:NOAA.NDBC:SGOF1:1,2017-12-07T02:00:00Z,29.4080,-84.8580,35.1,8.8,50.0,9.8,'1111122,1111122,1111122' 
NDBC,ioos:station:NOAA.NDBC:SGOF1:1,2017-12-07T03:00:00Z,29.4080,-84.8580,35.1,10.8,30.0,12.4,'1111122,1111122,1111122' 
NDBC,ioos:station:NOAA.NDBC:SGOF1:1,2017-12-07T04:00:00Z,29.4080,-84.8580,35.1,9.8,30.0,11.3,'1111122,1111122,1111122' 
NDBC,ioos:station:NOAA.NDBC:SGOF1:1,2017-12-07T05:00:00Z,29.4080,-84.8580,35.1,10.3,20.0,11.3,'1111122,1111122,1111122' 
NDBC,ioos:station:NOAA.NDBC:SGOF1:1,2017-12-07T06:00:00Z,29.4080,-84.8580,35.1,11.8,10.0,13.9,'1111122,1111122,1111122' 
NDBC,ioos:station:NOAA.NDBC:SGOF1:1,2017-12-07T07:00:00Z,29.4080,-84.8580,35.1,13.9,30.0,14.9,'1111122,1111122,1111122' 
NDBC,ioos:station:NOAA.NDBC:SGOF1:1,2017-12-07T08:00:00Z,29.4080,-84.8580,35.1,13.4,30.0,14.4,'1111122,1111122,1111122' 
NDBC,ioos:station:NOAA.NDBC:SGOF1:1,2017-12-07T09:00:00Z,29.4080,-84.8580,35.1,12.9,40.0,13.9,'1111122,1111122,1111122' 
NDBC,ioos:station:NOAA.NDBC:SGOF1:1,2017-12-07T10:00:00Z,29.4080,-84.8580,35.1,12.9,30.0,13.9,'1111122,1111122,1111122' 
NDBC,ioos:station:NOAA.NDBC:SGOF1:1,2017-12-07T11:00:00Z,29.4080,-84.8580,35.1,11.3,30.0,12.9,'1111122,1111122,1111122' 
NDBC,ioos:station:NOAA.NDBC:SGOF1:1,2017-12-07T12:00:00Z,29.4080,-84.8580,35.1,11.8,40.0,13.4,'1111122,1111122,1111122' 
NDBC,ioos:station:NOAA.NDBC:SGOF1:1,2017-12-07T13:00:00Z,29.4080,-84.8580,35.1,12.4,40.0,13.4,'1111122,1111122,1111122' 
NDBC,ioos:station:NOAA.NDBC:SGOF1:1,2017-12-07T14:00:00Z,29.4080,-84.8580,35.1,12.9,40.0,14.4,'1111122,1111122,1111122' 
NDBC,ioos:station:NOAA.NDBC:SGOF1:1,2017-12-07T15:00:00Z,29.4080,-84.8580,35.1,11.3,40.0,12.9,'1111122,1111122,1111122' 
NDBC,ioos:station:NOAA.NDBC:SGOF1:1,2017-12-07T16:00:00Z,29.4080,-84.8580,35.1,12.9,30.0,14.4,'1111122,1111122,1111122' 
NDBC,ioos:station:NOAA.NDBC:SGOF1:1,2017-12-07T17:00:00Z,29.4080,-84.8580,35.1,11.8,40.0,12.9,'1111122,1111122,1111122' 
NDBC,ioos:station:NOAA.NDBC:SGOF1:1,2017-12-07T18:00:00Z,29.4080,-84.8580,35.1,12.4,60.0,13.9,'1111122,1111122,1111122' 
NDBC,ioos:station:NOAA.NDBC:SGOF1:1,2017-12-07T19:00:00Z,29.4080,-84.8580,35.1,12.4,60.0,13.9,'1111122,1111122,1111122' 
NDBC,ioos:station:NOAA.NDBC:SGOF1:1,2017-12-07T20:00:00Z,29.4080,-84.8580,35.1,12.4,60.0,14.4,'1111122,1111122,1111122' 
NDBC,ioos:station:NOAA.NDBC:SGOF1:1,2017-12-07T22:00:00Z,29.4080,-84.8580,35.1,11.8,40.0,13.4,'1111122,1111122,1111122' 
NDBC,ioos:station:NOAA.NDBC:SGOF1:1,2017-12-07T23:00:00Z,29.4080,-84.8580,35.1,13.4,40.0,14.9,'1111122,1111122,1111122' 
NDBC,ioos:station:NOAA.NDBC:SGOF1:1,2017-12-08T00:00:00Z,29.4080,-84.8580,35.1,14.9,40.0,16.0,'1111122,1111122,1111122' 
NDBC,ioos:station:NOAA.NDBC:SGOF1:1,2017-12-08T01:00:00Z,29.4080,-84.8580,35.1,13.9,30.0,15.4,'1111122,1111122,1111122' 
NDBC,ioos:station:NOAA.NDBC:SGOF1:1,2017-12-08T02:00:00Z,29.4080,-84.8580,35.1,15.4,40.0,18.0,'1111122,1111122,1111122' 
NDBC,ioos:station:NOAA.NDBC:SGOF1:1,2017-12-08T03:00:00Z,29.4080,-84.8580,35.1,17.0,60.0,20.1,'1111122,1111122,1111122' 
NDBC,ioos:station:NOAA.NDBC:SGOF1:1,2017-12-08T04:00:00Z,29.4080,-84.8580,35.1,15.4,60.0,17.5,'1111122,1111122,1111122' 
NDBC,ioos:station:NOAA.NDBC:SGOF1:1,2017-12-08T05:00:00Z,29.4080,-84.8580,35.1,13.4,70.0,14.9,'1111122,1111122,1111122' 
NDBC,ioos:station:NOAA.NDBC:SGOF1:1,2017-12-08T06:00:00Z,29.4080,-84.8580,35.1,14.4,70.0,16.0,'1111122,1111122,1111122' 
NDBC,ioos:station:NOAA.NDBC:SGOF1:1,2017-12-08T07:00:00Z,29.4080,-84.8580,35.1,11.8,60.0,13.9,'1111122,1111122,1111122' 
NDBC,ioos:station:NOAA.NDBC:SGOF1:1,2017-12-08T08:00:00Z,29.4080,-84.8580,35.1,12.9,60.0,13.9,'1111122,1111122,1111122' 
NDBC,ioos:station:NOAA.NDBC:SGOF1:1,2017-12-08T09:00:00Z,29.4080,-84.8580,35.1,12.4,50.0,13.9,'1111122,1111122,1111122' 
NDBC,ioos:station:NOAA.NDBC:SGOF1:1,2017-12-08T10:00:00Z,29.4080,-84.8580,35.1,12.4,60.0,13.4,'1111122,1111122,1111122' 
NDBC,ioos:station:NOAA.NDBC:SGOF1:1,2017-12-08T11:00:00Z,29.4080,-84.8580,35.1,11.3,50.0,12.4,'1111122,1111122,1111122' 
NDBC,ioos:station:NOAA.NDBC:SGOF1:1,2017-12-08T12:00:00Z,29.4080,-84.8580,35.1,13.9,50.0,14.9,'1111122,1111122,1111122' 
NDBC,ioos:station:NOAA.NDBC:SGOF1:1,2017-12-08T13:00:00Z,29.4080,-84.8580,35.1,13.9,50.0,14.9,'1111122,1111122,1111122' 
NDBC,ioos:station:NOAA.NDBC:SGOF1:1,2017-12-08T14:00:00Z,29.4080,-84.8580,35.1,12.9,70.0,14.4,'1111122,1111122,1111122' 
NDBC,ioos:station:NOAA.NDBC:SGOF1:1,2017-12-08T15:00:00Z,29.4080,-84.8580,35.1,11.8,70.0,13.4,'1111122,1111122,1111122' 
NDBC,ioos:station:NOAA.NDBC:SGOF1:1,2017-12-08T16:00:00Z,29.4080,-84.8580,35.1,9.8,70.0,11.3,'1111122,1111122,1111122' 
NDBC,ioos:station:NOAA.NDBC:SGOF1:1,2017-12-08T17:00:00Z,29.4080,-84.8580,35.1,12.4,20.0,13.9,'1111122,1111122,1111122' 
NDBC,ioos:station:NOAA.NDBC:SGOF1:1,2017-12-08T18:00:00Z,29.4080,-84.8580,35.1,12.9,10.0,14.4,'1111122,1111122,1111122' 
NDBC,ioos:station:NOAA.NDBC:SGOF1:1,2017-12-08T19:00:00Z,29.4080,-84.8580,35.1,12.9,20.0,13.9,'1111122,1111122,1111122' 
NDBC,ioos:station:NOAA.NDBC:SGOF1:1,2017-12-08T20:00:00Z,29.4080,-84.8580,35.1,13.9,20.0,16.0,'1111122,1111122,1111122' 
NDBC,ioos:station:NOAA.NDBC:SGOF1:1,2017-12-08T21:00:00Z,29.4080,-84.8580,35.1,12.9,10.0,14.9,'1111122,1111122,1111122' 
NDBC,ioos:station:NOAA.NDBC:SGOF1:1,2017-12-08T22:00:00Z,29.4080,-84.8580,35.1,12.4,20.0,13.9,'1111122,1111122,1111122' 
NDBC,ioos:station:NOAA.NDBC:SGOF1:1,2017-12-08T23:00:00Z,29.4080,-84.8580,35.1,11.8,10.0,13.4,'1111122,1111122,1111122' 
NDBC,ioos:station:NOAA.NDBC:SGOF1:1,2017-12-09T00:00:00Z,29.4080,-84.8580,35.1,11.3,20.0,12.9,'1111122,1111122,1111122' 
NDBC,ioos:station:NOAA.NDBC:SGOF1:1,2017-12-09T01:00:00Z,29.4080,-84.8580,35.1,10.8,20.0,12.4,'1111122,1111122,1111122' 
NDBC,ioos:station:NOAA.NDBC:SGOF1:1,2017-12-09T02:00:00Z,29.4080,-84.8580,35.1,9.8,30.0,10.8,'1111122,1111122,1111122' 
NDBC,ioos:station:NOAA.NDBC:SGOF1:1,2017-12-09T03:00:00Z,29.4080,-84.8580,35.1,9.8,10.0,10.8,'1111122,1111122,1111122' 
NDBC,ioos:station:NOAA.NDBC:SGOF1:1,2017-12-09T04:00:00Z,29.4080,-84.8580,35.1,8.8,360.0,10.3,'1111122,1111122,1111122' 
NDBC,ioos:station:NOAA.NDBC:SGOF1:1,2017-12-09T05:00:00Z,29.4080,-84.8580,35.1,8.8,360.0,9.8,'1111122,1111122,1111122' 
NDBC,ioos:station:NOAA.NDBC:SGOF1:1,2017-12-09T06:00:00Z,29.4080,-84.8580,35.1,8.8,340.0,10.3,'1111122,1111122,1111122' 
NDBC,ioos:station:NOAA.NDBC:SGOF1:1,2017-12-09T07:00:00Z,29.4080,-84.8580,35.1,9.8,350.0,11.3,'1111122,1111122,1111122' 
NDBC,ioos:station:NOAA.NDBC:SGOF1:1,2017-12-09T08:00:00Z,29.4080,-84.8580,35.1,8.2,330.0,9.8,'1111122,1111122,1111122' 
NDBC,ioos:station:NOAA.NDBC:SGOF1:1,2017-12-09T09:00:00Z,29.4080,-84.8580,35.1,10.8,330.0,12.4,'1111122,1111122,1111122' 
NDBC,ioos:station:NOAA.NDBC:SGOF1:1,2017-12-09T10:00:00Z,29.4080,-84.8580,35.1,9.3,330.0,11.3,'1111122,1111122,1111122' 
NDBC,ioos:station:NOAA.NDBC:SGOF1:1,2017-12-09T11:00:00Z,29.4080,-84.8580,35.1,10.3,330.0,11.8,'1111122,1111122,1111122' 
NDBC,ioos:station:NOAA.NDBC:SGOF1:1,2017-12-09T12:00:00Z,29.4080,-84.8580,35.1,12.4,340.0,13.4,'1111122,1111122,1111122' 
NDBC,ioos:station:NOAA.NDBC:SGOF1:1,2017-12-09T13:00:00Z,29.4080,-84.8580,35.1,13.9,350.0,15.4,'1111122,1111122,1111122' 
NDBC,ioos:station:NOAA.NDBC:SGOF1:1,2017-12-09T14:00:00Z,29.4080,-84.8580,35.1,16.0,340.0,18.0,'1111122,1111122,1111122' 
NDBC,ioos:station:NOAA.NDBC:SGOF1:1,2017-12-09T15:00:00Z,29.4080,-84.8580,35.1,14.4,330.0,16.0,'1111122,1111122,1111122' 
NDBC,ioos:station:NOAA.NDBC:SGOF1:1,2017-12-09T16:00:00Z,29.4080,-84.8580,35.1,18.0,320.0,21.1,'1111122,1111122,1111122' 
NDBC,ioos:station:NOAA.NDBC:SGOF1:1,2017-12-09T17:00:00Z,29.4080,-84.8580,35.1,17.0,320.0,19.0,'1111122,1111122,1111122' 
NDBC,ioos:station:NOAA.NDBC:SGOF1:1,2017-12-09T18:00:00Z,29.4080,-84.8580,35.1,12.4,310.0,13.4,'1111122,1111122,1111122' 
NDBC,ioos:station:NOAA.NDBC:SGOF1:1,2017-12-09T19:00:00Z,29.4080,-84.8580,35.1,11.3,320.0,11.8,'1111122,1111122,1111122' 
NDBC,ioos:station:NOAA.NDBC:SGOF1:1,2017-12-09T20:00:00Z,29.4080,-84.8580,35.1,9.8,320.0,11.3,'1111122,1111122,1111122' 
NDBC,ioos:station:NOAA.NDBC:SGOF1:1,2017-12-09T21:00:00Z,29.4080,-84.8580,35.1,10.8,320.0,12.4,'1111122,1111122,1111122' 
NDBC,ioos:station:NOAA.NDBC:SGOF1:1,2017-12-09T22:00:00Z,29.4080,-84.8580,35.1,11.3,330.0,13.9,'1111122,1111122,1111122' 